[ hide orbit diagram ]
For accurate long-term ephemerides, please instead use our Horizons system.This orbit viewer was implemented using two-body methods, and hence should not be used for determining accurate long-term trajectories (over several years or decades) or planetary encounter circumstances.
Orbital Elements at Epoch 2459000.5 (2020-May-31.0) TDB
Reference: JPL 22 (heliocentric ecliptic J2000)
Element | Value | Uncertainty (1-sigma) | Units |
e | .2512205954678678 | 5.6646e-08 | |
a | 2.391912006985484 | 9.5597e-09 | au |
q | 1.791014448283848 | 1.3447e-07 | au |
i | 10.47425063940359 | 6.5006e-06 | deg |
node | 218.0066384605379 | 2.3334e-05 | deg |
peri | 178.6397352222376 | 2.4971e-05 | deg |
M | 256.9751339482023 | 8.1854e-06 | deg |
tp | 2459387.183626540765 (2021-Jun-21.68362654) | 3.1641e-05 | TDB |
period | 1351.189386499051 3.70 | 8.1004e-06 2.218e-08 | d yr |
n | .2664319329304122 | 1.5973e-09 | deg/d |
Q | 2.992809565687121 | 1.1961e-08 | au |
|
| | Orbit Determination Parameters
Additional Information
|
[ show covariance matrix ]
Physical Parameter Table
Parameter |
Symbol |
Value |
Units |
Sigma |
Reference |
Notes |
absolute magnitude |
H |
16.1 |
|
n/a |
MPO285114 |
|
|
183125 (2002 RC182) Discovered 2002-Sep-11 by NEAT at Palomar |
Reference: 20080420/Numbers.arc | Last Updated: 2008-04-23 |
|
|